Location: Unspecified
(40.4667°N, 0.0000°E)
Time: 18:34:20
(UTC+00:00)

ISS - Pass Details

Date: 23 May 2019
Orbit: 408 x 418 km, 51.6° (Epoch: 18 June)

Event Time Altitude Azimuth Distance (km) Brightness Sun altitude
Rises 19:43:43 0° 257° (WSW) 2,340 0.8 -5.2°
Reaches altitude 10° 19:45:57 10° 268° (W) 1,483 0.0 -5.6°
Maximum altitude 19:48:57 31° 333° (NNW) 754 -1.7 -6.1°
Drops below altitude 10° 19:52:00 10° 38° (NE) 1,495 -1.0 -6.6°
Sets 19:54:15 0° 49° (NE) 2,363 -0.1 -6.9°
